Meteo Giornale » Osservazioni meteo Stati Uniti (USA) » Sanford
ore: 04:56 - Osservazioni Meteo Sanford
Lat. 43° 24' N Lon. 70° 43' W Alt. 74 metri s.l.m.
16 °C
Foschia
Temp. 24 Ore
12 °C
22 °C
Nord
0 Km/h
Dew point 16 °C
Umidità 100 %
Visibilità 6 Km
Il sole sorge alle ore 06:08
Il sole tramonta alle ore 19:16
| Data e Ora | Cielo e Fenomeni | T °C | DP °C | Um. % | Pres. hPa | Vis. km | Vento km/h | |
|---|---|---|---|---|---|---|---|---|
| Oggi h: 04:56 | Foschia | 16 | 16 | 100 | 1022 | 6 | N 0 | |
| Oggi h: 04:37 | Foschia | 16 | 16 | 100 | 1022 | 5 | N 0 | |
| Oggi h: 03:56 | Foschia | 16 | 16 | 100 | 1022 | 2 | N 0 | |
| Oggi h: 03:54 | Foschia | 16 | 16 | 100 | 1022 | 2 | N 0 | |
| Oggi h: 02:56 | Nebbia | 16 | 16 | 100 | 1021 | 2 | N 0 | |
| Oggi h: 02:54 | Nebbia | 16 | 16 | 100 | 1021 | 2 | N 0 | |
| Oggi h: 02:16 | Nebbia | 16 | 16 | 100 | 1021 | 2 | N 0 | |
| Oggi h: 01:56 | Nebbia | 16 | 16 | 100 | 1021 | 2 | N 0 | |
| Oggi h: 01:32 | Nebbia | 16 | 16 | 100 | 1021 | 2 | N 0 | |
| Oggi h: 00:56 | Nebbia | 16 | 16 | 100 | 1021 | 2 | N 0 | |
| Oggi h: 00:33 | Nebbia | 16 | 16 | 100 | 1020 | 2 | N 5.5 | |
| Ieri h: 23:56 | Nebbia | 15 | 15 | 100 | 1020 | 2 | N 0 | |
| Ieri h: 23:13 | Foschia | 16 | 15 | 93 | 1020 | 5 | N 0 | |
| Ieri h: 23:02 | Foschia | 16 | 16 | 100 | 1020 | 5 | N 5.5 | |
| Ieri h: 22:56 | Foschia | 16 | 16 | 100 | 1020 | 8 | N 0 | |
| Ieri h: 22:42 | Foschia | 16 | 16 | 100 | 1020 | 10 | N 0 | |
| Ieri h: 21:56 | Coperto | 17 | 16 | 93 | 1020 | 10 | N 0 | |
| Ieri h: 20:56 | Coperto | 17 | 16 | 93 | 1019 | 10 | N 0 | |
| Ieri h: 19:56 | Coperto | 18 | 17 | 93 | 1019 | 10 | N 0 | |
| Ieri h: 18:56 | Coperto | 19 | 17 | 88 | 1019 | 10 | N 0 | |
| Ieri h: 17:56 | Coperto | 20 | 17 | 82 | 1019 | 10 | N 5.5 | |
| Ieri h: 16:56 | Coperto | 21 | 16 | 73 | 1018 | 10 | E/SE 7.4 | |
| Ieri h: 15:56 | Coperto | 21 | 16 | 73 | 1018 | 10 | N 0 | |
| Ieri h: 14:56 | Coperto | 21 | 16 | 73 | 1018 | 10 | S/SE 7.4 | |
| Ieri h: 13:56 | Coperto | 22 | 13 | 56 | 1018 | 10 | N 9.3 | |
| Ieri h: 12:56 | Nuvoloso | 21 | 14 | 64 | 1018 | 10 | N 0 | |
| Ieri h: 11:56 | Coperto | 19 | 13 | 68 | 1018 | 10 | N 7.4 | |
| Ieri h: 10:56 | Sereno | 18 | 13 | 72 | 1018 | 10 | NE 9.3 | |
| Ieri h: 09:56 | Molto Nuvoloso | 17 | 12 | 72 | 1019 | 10 | N 5.5 | |
| Ieri h: 08:56 | Molto Nuvoloso | 16 | 13 | 82 | 1019 | 10 | N 5.5 | |
| Ieri h: 07:56 | Coperto | 14 | 13 | 93 | 1019 | 10 | N 0 | |
| Ieri h: 06:56 | Coperto | 14 | 13 | 93 | 1018 | 10 | N 5.5 | |
| Ieri h: 05:56 | Nuvoloso | 12 | 12 | 100 | 1017 | 10 | N 0 | |



